OSCAR 7 (AO-7) 1 07530U 74089B 26171.32384950 -.00000048 00000+0 -10319-4 0 9995 2 07530 101.9899 184.6033 0012609 124.3014 247.3322 12.53698149360912 PHASE 3B (AO-10) 1 14129U 83058B 26170.31181399 .00000155 00000+0 00000+0 0 9991 2 14129 25.9140 219.2125 6010101 116.2527 316.1180 2.05869727295535 UOSAT 2 (UO-11) 1 14781U 84021B 26171.17466261 .00001028 00000+0 11016-3 0 9998 2 14781 97.8059 136.7159 0007912 162.8520 197.2967 14.90789334257571 LUSAT (LO-19) 1 20442U 90005G 26171.32155512 .00000068 00000+0 41169-4 0 9995 2 20442 98.8848 193.2136 0011288 191.6338 168.4586 14.34123955902843 EYESAT A (AO-27) 1 22825U 93061C 26171.14644842 .00000066 00000+0 42028-4 0 9999 2 22825 98.6879 238.5590 0009541 92.1826 268.0449 14.30942955707422 ITAMSAT (IO-26) 1 22826U 93061D 26171.12497805 .00000065 00000+0 41439-4 0 9997 2 22826 98.6826 238.4553 0010030 77.4626 282.7678 14.31369966707739 RADIO ROSTO (RS15) 1 23439U 94085A 26171.30878827 -.00000028 00000+0 39948-3 0 9993 2 23439 64.8186 298.1674 0156035 3.2975 356.8941 11.27583503296254 JAS-2 (FO-29) 1 24278U 96046B 26171.04668621 -.00000015 00000+0 17773-4 0 9993 2 24278 98.5237 19.5270 0350925 89.0333 275.0987 13.53274564473555 TECHSAT 1B (GO-32) 1 25397U 98043D 26171.22532426 .00000030 00000+0 33011-4 0 9997 2 25397 99.0068 164.0607 0001214 156.9177 203.2056 14.24428866451764 ISS (ZARYA) 1 25544U 98067A 26171.15661001 .00008669 00000+0 16345-3 0 9997 2 25544 51.6329 285.3962 0004555 207.7610 152.3136 15.49327998572210 PCSAT (NO-44) 1 26931U 01043C 26171.30235592 .00000048 00000+0 48882-4 0 9990 2 26931 67.0502 236.2148 0006064 264.6638 95.3772 14.31957024290897 SAUDISAT 1C (SO-50) 1 27607U 02058C 26171.18974593 .00000729 00000+0 10356-3 0 9995 2 27607 64.5514 119.6951 0075161 261.9163 97.3411 14.83052340264905 CUTE-1 (CO-55) 1 27844U 03031E 26170.56610412 .00000202 00000+0 10624-3 0 9992 2 27844 98.6736 179.0951 0009689 171.1603 188.9749 14.24336935192018 CUBESAT XI-IV (CO-57) 1 27848U 03031J 26170.97745452 .00000169 00000+0 93103-4 0 9990 2 27848 98.6765 179.2116 0009219 188.6492 171.4529 14.23622052191779 MOZHAETS 4 (RS22) 1 27939U 03042A 26171.34705185 .00000124 00000+0 27353-4 0 9999 2 27939 98.3471 355.7944 0009926 258.2610 222.2118 14.73469403216010 CUBESAT XI-V 1 28895U 05043F 26170.91661833 .00001064 00000+0 17521-3 0 9996 2 28895 98.2988 326.5955 0013842 191.8457 168.2426 14.72637619102150 CUTE-1.7+APD II (CO-65) 1 32785U 08021C 26171.23183503 .00004715 00000+0 29832-3 0 9991 2 32785 97.8278 152.7136 0009462 29.2800 330.8957 15.09475862985650 SEEDS II (CO-66) 1 32791U 08021J 26170.94270999 .00015827 00000+0 50132-3 0 9994 2 32791 97.7524 168.9721 0000692 347.0777 13.0446 15.32829868987716 YUBILEINY (RS30) 1 32953U 08025A 26171.23710631 .00000026 00000+0 11979-3 0 9994 2 32953 82.5041 353.5420 0018744 306.9538 52.9825 12.43179508820072 KKS-1 (KISEKI) 1 33499U 09002H 26171.29256984 .00001007 00000+0 13041-3 0 9990 2 33499 98.1188 93.7841 0006423 283.6883 76.3615 14.83130633936659 SWISSCUBE 1 35932U 09051B 26171.17902305 .00000711 00000+0 15003-3 0 9991 2 35932 98.4033 79.1195 0006171 192.6984 167.4062 14.62486325889593 BEESAT-1 1 35933U 09051C 26170.71084495 .00000603 00000+0 13077-3 0 9991 2 35933 98.3961 78.2733 0004371 207.4388 152.6582 14.61723870889551 ITUPSAT1 1 35935U 09051E 26171.25204672 .00000541 00000+0 12172-3 0 9990 2 35935 98.4046 78.0115 0006403 222.9093 137.1608 14.60444493889189 XIWANG-1 (HOPE-1) 1 36122U 09072B 26171.28384512 .00000206 00000+0 65508-3 0 9996 2 36122 100.4034 125.0670 0006925 223.7061 136.3504 13.16440875793417 O/OREOS (USA 219) 1 37224U 10062C 26171.14280665 .00001640 00000+0 16050-3 0 9991 2 37224 71.9702 73.6446 0012657 56.8090 303.4293 14.93754530117087 JUGNU 1 37839U 11058B 26170.40974200 .00000394 00000+0 66043-4 0 9995 2 37839 19.9617 294.9273 0018623 100.5982 300.1635 14.13777315759341 SRMSAT 1 37841U 11058D 26170.35988047 .00000354 00000+0 48474-4 0 9990 2 37841 19.9728 46.3158 0011744 227.6220 288.1945 14.11575972758128 STRAND-1 1 39090U 13009E 26170.98012229 .00000194 00000+0 79707-4 0 9990 2 39090 98.3923 351.1457 0007876 216.0202 144.0455 14.37164594697463 ZACUBE-1 (TSHEPISOSAT) 1 39417U 13066B 26170.94018519 .00002355 00000+0 18525-3 0 9991 2 39417 97.8072 133.2914 0041152 238.1921 121.5293 15.01201080681142 GOMX-1 1 39430U 13066Q 26171.25015190 .00001171 00000+0 18105-3 0 9992 2 39430 97.6478 11.5188 0130104 67.8557 293.6400 14.69468214670364 CUBEBUG-2 (LO-74) 1 39440U 13066AA 26171.27848929 .00004167 00000+0 38586-3 0 9992 2 39440 97.8909 120.2695 0058179 19.0950 341.2432 14.93785800677456 FUNCUBE-1 (AO-73) 1 39444U 13066AE 26171.17211760 .00004774 00000+0 29759-3 0 9998 2 39444 97.8278 142.6800 0035926 190.4382 169.6104 15.09518490680115 UWE-3 1 39446U 13066AG 26171.29028370 .00003740 00000+0 32274-3 0 9994 2 39446 97.8702 127.3847 0047211 310.7408 48.9719 14.97046426678047 UNISAT-6 1 40012U 14033C 26171.29329798 .00002275 00000+0 24754-3 0 9994 2 40012 97.7886 323.9503 0046105 59.3614 301.2137 14.88258560646621 DUCHIFAT-1 1 40021U 14033M 26170.64352406 .00095101 00000+0 96085-3 0 9990 2 40021 98.0454 230.1491 0002568 110.7852 249.3681 15.65018762656139 QB50P1 1 40025U 14033R 26171.31353526 .00007093 00000+0 34929-3 0 9995 2 40025 98.0964 182.6784 0008083 203.9686 156.1171 15.18299167653508 LILACSAT-2 1 40908U 15049K 26171.23910490 .00014381 00000+0 24453-3 0 9992 2 40908 97.4641 208.1970 0005721 230.6823 129.3923 15.51528982596229 FOX-1A (AO-85) 1 40967U 15058D 26171.30383287 .00001666 00000+0 15842-3 0 9997 2 40967 64.7745 269.2980 0130596 55.4027 305.9322 14.90980949114030 CAS-2T & KS-1Q 1 41847U 16066G 26171.21882670 .00001296 00000+0 18865-3 0 9992 2 41847 98.3821 246.9206 0342870 120.3110 243.2471 14.44702954505236 RADFXSAT (FOX-1B) 1 43017U 17073E 26171.18457471 .00006691 00000+0 29340-3 0 9999 2 43017 97.4696 38.3374 0149318 318.7924 40.2110 15.12753215465843 DIWATA-2B 1 43678U 18084H 26171.30419036 .00001606 00000+0 13266-3 0 9995 2 43678 98.1188 7.6472 0012767 160.1805 199.9916 15.00462826416688 ES'HAIL 2 1 43700U 18090A 26171.25448352 .00000139 00000+0 00000+0 0 9993 2 43700 0.0157 57.1433 0001817 67.4240 261.2931 1.00272434 27705 FOX-1CLIFF (AO-95) 1 43770U 18099N 26171.09258373 .00009291 00000+0 35555-3 0 9998 2 43770 97.4376 231.3282 0007668 346.8388 13.2649 15.26762464413665 ITASAT 1 43786U 18099AE 26171.11764083 .00005183 00000+0 24987-3 0 9991 2 43786 97.4025 222.5709 0011788 349.8108 10.2885 15.19087166413356 JY1SAT (JO-97) 1 43803U 18099AX 26170.70553725 .00013869 00000+0 42740-3 0 9991 2 43803 97.4125 233.5484 0004492 250.8022 109.2735 15.33718827414017 UWE-4 1 43880U 18111E 26170.73909040 .00028000 00000+0 56934-3 0 9992 2 43880 97.5852 99.2477 0005067 330.7950 29.3015 15.46259003411173 TIANYAN 01 1 44881U 19093C 26171.27575440 .00000426 00000+0 54079-4 0 9998 2 44881 97.7525 243.4326 0015012 77.8966 282.3931 14.86521771351872 RS-44 & BREEZE-KM R/B 1 44909U 19096E 26171.21062974 .00000023 00000+0 41148-4 0 9995 2 44909 82.5221 337.6954 0218282 137.1228 224.7127 12.79748886302732 SALSAT 1 46495U 20068K 26170.95810387 .00006379 00000+0 22355-3 0 9995 2 46495 97.8854 174.1914 0007892 296.5001 63.5428 15.29832652315782 XW-3 (CAS-9) 1 50466U 21131B 26171.31731078 .00000335 00000+0 11703-3 0 9991 2 50466 98.4982 263.6901 0005388 89.9489 270.2317 14.41359647235568 GREENCUBE (IO-117) 1 53109U 22080E 26171.29702634 -.00000003 00000+0 00000+0 0 9992 2 53109 70.1444 297.1634 0008922 288.8810 71.0882 6.42583223 92268 UMKA 1 (RS40S) 1 57172U 23091G 26171.12051317 .00005134 00000+0 23516-3 0 9996 2 57172 97.5045 229.8066 0014330 108.5784 251.7009 15.20846269164458 CUBESX-HSE 3 (RS42S) 1 57178U 23091N 26171.24521481 .00011352 00000+0 37741-3 0 9993 2 57178 97.5086 236.8713 0011958 85.3921 274.8685 15.31279790164899 MONITOR-3 (RS58S) 1 57180U 23091Q 26171.27646173 .00008790 00000+0 32480-3 0 9992 2 57180 97.5078 234.7454 0013042 91.3240 268.9494 15.27893550164768 MONITOR-4 (RS57S) 1 57182U 23091S 26171.25534666 .00008999 00000+0 33157-3 0 9998 2 57182 97.5072 234.6956 0013052 91.8024 268.4710 15.27979072164766 MONITOR-2 (RS39S) 1 57184U 23091U 26171.27720595 .00003669 00000+0 17867-3 0 9999 2 57184 97.5067 229.5404 0012779 101.7921 258.4748 15.18934270164429 SVYATOBOR 1 (RS60S) 1 57187U 23091X 26171.27108023 .00007675 00000+0 29498-3 0 9992 2 57187 97.5084 235.1054 0010815 85.3139 274.9334 15.26659006164785 VIZARD-METEO (RS38S) 1 57189U 23091Z 26171.14421981 .00014444 00000+0 41234-3 0 9995 2 57189 97.5087 240.6890 0008086 68.9656 291.2452 15.36104713165142 POLYTECH-UNIVERSE 3 (R*) 1 57191U 23091AB 26171.23812962 .00004381 00000+0 21107-3 0 9997 2 57191 97.5043 229.0059 0016995 117.1032 243.1939 15.19137280164419 UTMN 2 (RS27S) 1 57203U 23091AP 26171.26113250 .00011109 00000+0 36028-3 0 9992 2 57203 97.5082 238.5250 0009098 74.7319 285.4927 15.32114956165019 KUZGTU 1 (RS47S) 1 57217U 23091AV 26171.23901837 .00009574 00000+0 33240-3 0 9996 2 57217 97.5058 235.7502 0012236 88.6637 271.6005 15.29918392164847 SONATE-2 1 59112U 24043Q 26171.21961612 .00037043 00000+0 47732-3 0 9998 2 59112 97.5541 321.8019 0007209 185.3360 174.7820 15.58914873128369 MESAT1 1 60209U 24125G 26171.05066676 .00049535 00000+0 53419-3 0 9994 2 60209 97.2284 28.5983 0009832 192.9282 167.1727 15.63472773110010 OOV-CUBE (TUBSAT-30) 1 60240U 24128F 26170.58394809 .00001296 00000+0 11023-3 0 9998 2 60240 61.9930 217.2156 0044338 134.2886 226.1856 15.02780984106472 COLIBRI-S (RS67S) 1 61746U 24199M 26171.29438374 .00018660 00000+0 36030-3 0 9991 2 61746 97.2989 45.1764 0006300 263.2557 96.7976 15.47832917137895 HORS 3 (RS81S) 1 61753U 24199U 26171.24257622 .00031757 00000+0 47124-3 0 9997 2 61753 97.2970 47.1440 0003797 259.0709 101.0119 15.55154691138036 HORS 4 (RS82S) 1 61754U 24199V 26171.25805008 .00044283 00000+0 54892-3 0 9994 2 61754 97.2914 48.3811 0003399 239.4114 120.6808 15.59928043138126 SIT-2086 1 61764U 24199AF 26171.28895606 .00031243 00000+0 49632-3 0 9999 2 61764 97.2928 47.6569 0004891 235.0370 125.0425 15.53271815134917 HYPERVIEW 1G (RS66S) 1 61772U 24199AP 26171.11001400 .00125192 00000+0 78003-3 0 9992 2 61772 97.2851 50.9798 0004715 207.8229 152.2786 15.76549631135133 ALTAIR (RS65S) 1 61779U 24199AW 26171.23691422 .00007478 00000+0 20806-3 0 9995 2 61779 97.3023 40.5674 0010891 298.6156 61.3993 15.37062340137584 ASRTU-1 (AO-123) 1 61781U 24199AY 26171.29264810 .00006331 00000+0 18421-3 0 9998 2 61781 97.2995 39.9350 0012097 301.4843 58.5218 15.35713194134407 SAMSAT-IONOSPHERE (RS7*) 1 61784U 24199BB 26171.27133711 .00040839 00000+0 54723-3 0 9990 2 61784 97.2937 47.2313 0005966 260.3206 99.7376 15.57858502138043 RTU MIREA 1 (RS51S) 1 61785U 24199BC 26171.28885848 .00050219 00000+0 58806-3 0 9996 2 61785 97.2926 48.0969 0005754 251.1705 108.8929 15.61381414134955 TEVEL2-4 1 63213U 25052D 26171.18155784 .00016297 00000+0 48630-3 0 9993 2 63213 97.3892 67.5778 0004925 97.4797 262.7005 15.34700095 70573 TEVEL2-5 1 63214U 25052E 26171.26760576 .00015978 00000+0 47945-3 0 9997 2 63214 97.3892 67.6107 0004894 98.9294 261.2503 15.34527610 70582 TEVEL2-6 1 63215U 25052F 26171.28000724 .00015976 00000+0 47994-3 0 9994 2 63215 97.3898 67.6078 0004759 99.4633 260.7149 15.34492782 70580 TEVEL2-1 1 63217U 25052H 26171.17964496 .00015594 00000+0 47659-3 0 9993 2 63217 97.3873 67.1285 0004873 107.5627 252.6148 15.33952529 70556 TEVEL2-3 1 63218U 25052J 26170.65232947 .00014905 00000+0 45510-3 0 9994 2 63218 97.3873 66.6229 0004838 109.1056 251.0711 15.33991826 70477 TEVEL2-2 1 63219U 25052K 26171.17994154 .00015656 00000+0 47833-3 0 9992 2 63219 97.3871 67.1308 0004871 108.3125 251.8648 15.33961605 70553 TEVEL2-9 1 63237U 25052AD 26171.22655169 .00013721 00000+0 44623-3 0 9993 2 63237 97.3933 66.5461 0008044 122.3024 237.8998 15.31975924 70497 TEVEL2-7 1 63238U 25052AE 26171.20271571 .00013367 00000+0 43885-3 0 9998 2 63238 97.3934 66.4373 0008076 122.8867 237.3153 15.31676701 70483 TEVEL2-8 1 63239U 25052AF 26170.68834909 .00012538 00000+0 41221-3 0 9991 2 63239 97.3937 65.9009 0008075 124.5955 235.6049 15.31647647 70407 INNOSAT 16 (RS92S7) 1 64878U 25155C 26171.28183071 .00004560 00000+0 18277-3 0 9990 2 64878 97.4567 138.3995 0010920 164.8544 195.3023 15.25483768 81141 GEOSCAN 6 (RS92S6) 1 64879U 25155D 26171.25509649 .00008520 00000+0 29388-3 0 9996 2 64879 97.4560 139.8187 0008760 152.7164 207.4538 15.30199853 81238 GEOSCAN 1 (RS92S1) 1 64880U 25155E 26171.25635003 .00009473 00000+0 32044-3 0 9993 2 64880 97.4557 139.9705 0008721 152.5565 207.6138 15.30799265 81245 239ALFEROV (RS61S) 1 64881U 25155F 26171.28686495 .00012243 00000+0 38586-3 0 9994 2 64881 97.4557 140.5731 0008411 149.7161 210.4569 15.33010020 81281 GEOSCAN 2 (RS92S2) 1 64890U 25155Q 26171.24949061 .00009359 00000+0 31403-3 0 9996 2 64890 97.4556 140.1174 0008415 140.5078 219.6777 15.31070803 81259 GEOSCAN 5 (RS92S5) 1 64891U 25155R 26171.27524921 .00012379 00000+0 38636-3 0 9995 2 64891 97.4549 140.7002 0007150 153.2964 206.8647 15.33326592 81297 GEOSCAN 4 (RS92S4) 1 64892U 25155S 26171.25913054 .00012780 00000+0 39685-3 0 9994 2 64892 97.4553 140.7330 0007233 152.7944 207.3678 15.33481925 81293 GEOSCAN 3 (RS92S3) 1 64893U 25155T 26171.25590400 .00015638 00000+0 45518-3 0 9998 2 64893 97.4541 141.1685 0007186 151.2619 208.9022 15.35481878 81322 INNOSAT 3 (RS92S0) 1 64894U 25155U 26171.22918553 .00033406 00000+0 73183-3 0 9991 2 64894 97.4490 142.7980 0006956 143.6194 216.5528 15.44012811 81433 KNACKSAT-2 1 67683U 98067XZ 26170.59247606 .00040473 00000+0 49084-3 0 9990 2 67683 51.6307 282.3774 0008934 225.7617 134.2643 15.60167582 20658